Location: LDNL
(36.4545°S, 141.6685°E)
Time: 02:09:49
(UTC+10:00)

Courier 1B Rocket - Pass Details

Date: 03 June 2024
Orbit: 920 x 1201 km, 28.3° (Epoch: 14 June)

Event Time Altitude Azimuth Distance (km) Brightness Sun altitude
Exits shadow 03:45:02 12° 35° (NE) 2,914 7.7 -46.0°
Drops below altitude 10° 03:45:33 10° 38° (NE) 3,061 7.8 -45.9°
Sets 03:48:51 0° 48° (NE) 4,051 8.7 -45.3°
